Weather History for Mount Airy, NC

Change the Weather History Date:

Wednesday, December 5, 2012

  Actual Average (KINT) Record (KINT)
Temperature  
Mean Temperature 52 °F -  
Max Temperature 62 °F 51 °F 72 °F (2001)
Min Temperature 42 °F 35 °F 15 °F (1969)
Degree Days  
Heating Degree Days 13    
Growing Degree Days 2 (Base 50)    
Moisture  
Dew Point 35 °F    
Average Humidity 53    
Maximum Humidity 88    
Minimum Humidity 16    
Precipitation  
Precipitation 0.00 in - - ()
Sea Level Pressure  
Sea Level Pressure 30.17 in    
Wind  
Wind Speed 2 mph (NNW)    
Max Wind Speed 9 mph    
Max Gust Speed -    
Visibility 10 miles    
Events Rain    
Averages and records for this station are not official NWS values.
T = Trace of Precipitation, MM = Missing Value Source: NWS Daily Summary

Daily Weather History Graph

Daily Weather History Graph

Search for Another Location

Airport:

Trip Planner

Search our weather history database for the weather conditions in past years. The results will help you decide how hot, cold, wet, or windy it might be!

Date:

Astronomy

Dec. 05, 2012 Rise Set
Actual Time 7:19 AM EST 5:06 PM EST
Civil Twilight 6:50 AM EST 5:35 PM EST
Nautical Twilight 6:18 AM EST 6:07 PM EST
Astronomical Twilight 5:47 AM EST 6:38 PM EST
Moon 11:46 PM EST (12/5) 11:49 AM EST (12/5)
Length of Visible Light 10h 44m
Length of Day
9h 47m
Waning Gibbous, 60% of the Moon is Illuminated
Dec 5
Waning Gibbous
Dec 6
Last Quarter
Dec 13
New
Dec 20
First Quarter
Dec 28
Full

Hourly Weather History & Observations

Time (EST) Temp. Windchill Dew Point Humidity Pressure Visibility Wind Dir Wind Speed Gust Speed Precip Events Conditions
12:15 AM 57.2 °F - 49.6 °F 76% 30.15 in 10.0 mi Calm Calm - N/A   Mostly Cloudy
12:35 AM 57.2 °F - 50.0 °F 77% 30.14 in 10.0 mi Calm Calm - N/A   Clear
12:55 AM 56.7 °F - 50.2 °F 79% 30.15 in 10.0 mi Calm Calm - N/A   Clear
1:15 AM 53.4 °F - 48.6 °F 84% 30.14 in 10.0 mi Calm Calm - N/A   Clear
1:35 AM 52.0 °F - 47.3 °F 84% 30.13 in 10.0 mi Calm Calm - N/A   Scattered Clouds
1:55 AM 54.5 °F - 49.3 °F 83% 30.14 in 10.0 mi Calm Calm - N/A   Mostly Cloudy
2:15 AM 55.0 °F - 49.5 °F 81% 30.13 in 10.0 mi Calm Calm - N/A   Overcast
2:55 AM 54.7 °F - 49.3 °F 82% 30.13 in 10.0 mi SSE 3.5 mph - N/A   Overcast
3:15 AM 56.3 °F - 50.5 °F 81% 30.13 in 10.0 mi Calm Calm - N/A   Overcast
3:35 AM 57.0 °F - 50.9 °F 80% 30.12 in 10.0 mi Calm Calm - N/A   Overcast
3:55 AM 56.5 °F - 50.9 °F 82% 30.12 in 10.0 mi Calm Calm - N/A   Overcast
4:15 AM 56.1 °F - 50.4 °F 81% 30.12 in 10.0 mi Calm Calm - N/A   Overcast
4:35 AM 55.9 °F - 50.7 °F 83% 30.12 in 10.0 mi Calm Calm - N/A   Overcast
4:55 AM 54.9 °F - 50.0 °F 84% 30.11 in 10.0 mi Calm Calm - N/A   Overcast
5:15 AM 54.1 °F - 49.3 °F 84% 30.11 in 10.0 mi Calm Calm - N/A   Overcast
5:35 AM 53.6 °F - 48.9 °F 84% 30.11 in 10.0 mi Calm Calm - N/A   Overcast
5:55 AM 53.8 °F - 49.1 °F 84% 30.12 in 10.0 mi Calm Calm - N/A Rain Rain
6:15 AM 54.7 °F - 50.0 °F 84% 30.12 in 10.0 mi Calm Calm - N/A Rain Light Rain
6:35 AM 54.0 °F - 50.0 °F 86% 30.13 in 10.0 mi Calm Calm - N/A Rain Light Rain
6:55 AM 54.0 °F - 50.2 °F 87% 30.13 in 10.0 mi Calm Calm - N/A   Overcast
7:15 AM 52.3 °F - 48.7 °F 88% 30.14 in 10.0 mi Calm Calm - N/A   Overcast
7:35 AM 53.1 °F - 49.5 °F 88% 30.15 in 10.0 mi Calm Calm - N/A Rain Light Rain
7:55 AM 53.6 °F - 50.0 °F 88% 30.15 in 10.0 mi Calm Calm - N/A Rain Light Rain
9:35 AM 57.2 °F - 51.1 °F 80% 30.20 in 10.0 mi NNW 6.9 mph - N/A   Light Drizzle
9:55 AM 57.2 °F - 47.1 °F 69% 30.20 in 10.0 mi NNW 8.1 mph - N/A   Overcast
10:15 AM 57.2 °F - 41.7 °F 56% 30.20 in 10.0 mi North 5.8 mph - N/A   Overcast
10:35 AM 57.2 °F - 39.7 °F 52% 30.20 in 10.0 mi NNW 6.9 mph - N/A   Overcast
10:55 AM 57.2 °F - 38.3 °F 49% 30.20 in 10.0 mi NNW 5.8 mph - N/A   Overcast
11:15 AM 57.6 °F - 37.4 °F 47% 30.20 in 10.0 mi North 3.5 mph - N/A   Overcast
11:35 AM 57.7 °F - 36.0 °F 44% 30.19 in 10.0 mi North 6.9 mph - N/A Rain Light Rain
11:55 AM 58.8 °F - 34.9 °F 41% 30.19 in 10.0 mi North 3.5 mph - N/A   Overcast
12:15 PM 58.5 °F - 32.0 °F 37% 30.18 in 10.0 mi North 4.6 mph - N/A   Overcast
12:35 PM 58.1 °F - 31.5 °F 36% 30.17 in 10.0 mi North 6.9 mph - N/A   Scattered Clouds
12:55 PM 58.5 °F - 30.7 °F 35% 30.17 in 10.0 mi NNW 5.8 mph - N/A   Scattered Clouds
1:15 PM 58.3 °F - 28.2 °F 32% 30.17 in 10.0 mi NNW 3.5 mph - N/A   Scattered Clouds
1:35 PM 61.7 °F - 26.2 °F 26% 30.16 in 10.0 mi NNW 8.1 mph - N/A   Clear
1:55 PM 61.9 °F - 22.8 °F 22% 30.16 in 10.0 mi NW 9.2 mph - N/A   Clear
2:15 PM 60.4 °F - 24.8 °F 26% 30.16 in 10.0 mi NNW 4.6 mph - N/A   Clear
2:35 PM 61.5 °F - 23.5 °F 23% 30.15 in 10.0 mi NNW 4.6 mph - N/A   Clear
2:55 PM 62.8 °F - 21.9 °F 21% 30.15 in 10.0 mi NNW 8.1 mph - N/A   Clear
3:15 PM 62.6 °F - 19.0 °F 19% 30.15 in 10.0 mi North 6.9 mph - N/A   Clear
3:35 PM 62.2 °F - 15.8 °F 16% 30.15 in 10.0 mi North 8.1 mph - N/A   Clear
3:55 PM 62.1 °F - 17.6 °F 18% 30.16 in 10.0 mi North 3.5 mph - N/A   Clear
4:15 PM 61.3 °F - 18.3 °F 19% 30.17 in 10.0 mi North 4.6 mph - N/A   Clear
4:35 PM 60.1 °F - 19.2 °F 21% 30.17 in 10.0 mi NNW 3.5 mph - N/A   Clear
4:55 PM 59.0 °F - 19.2 °F 21% 30.17 in 10.0 mi NNW 3.5 mph - N/A   Clear
5:15 PM 58.1 °F - 18.1 °F 21% 30.18 in 10.0 mi Calm Calm - N/A   Clear
5:35 PM 58.1 °F - 17.1 °F 20% 30.19 in 10.0 mi Calm Calm - N/A   Clear
5:55 PM 55.2 °F - 19.9 °F 25% 30.19 in 10.0 mi Calm Calm - N/A   Clear
6:15 PM 52.3 °F - 20.8 °F 29% 30.19 in 10.0 mi North 3.5 mph - N/A   Clear
6:35 PM 48.0 °F - 28.0 °F 46% 30.20 in 10.0 mi Calm Calm - N/A   Clear
6:55 PM 44.6 °F - 29.1 °F 55% 30.20 in 10.0 mi Calm Calm - N/A   Clear
7:15 PM 47.3 °F - 26.4 °F 44% 30.20 in 10.0 mi Calm Calm - N/A   Clear
7:35 PM 48.7 °F - 23.2 °F 37% 30.21 in 10.0 mi Calm Calm - N/A   Clear
7:55 PM 44.8 °F 43.3 °F 25.7 °F 47% 30.21 in 10.0 mi NNW 3.5 mph - N/A   Clear
8:15 PM 44.8 °F - 25.9 °F 48% 30.21 in 10.0 mi Calm Calm - N/A   Clear
8:35 PM 42.8 °F 41.1 °F 26.6 °F 53% 30.21 in 10.0 mi NNW 3.5 mph - N/A   Clear
8:55 PM 50.0 °F - 23.4 °F 35% 30.21 in 10.0 mi NW 4.6 mph - N/A   Clear
9:15 PM 44.4 °F 42.0 °F 26.4 °F 49% 30.22 in 10.0 mi North 4.6 mph - N/A   Clear
9:35 PM 47.8 °F - 25.3 °F 41% 30.22 in 10.0 mi North 4.6 mph - N/A   Clear
9:55 PM 48.9 °F - 23.2 °F 36% 30.21 in 10.0 mi NNW 3.5 mph - N/A   Clear
10:15 PM 47.5 °F - 23.5 °F 39% 30.21 in 10.0 mi NNW 3.5 mph - N/A   Clear
10:35 PM 46.4 °F 43.5 °F 23.9 °F 41% 30.21 in 10.0 mi North 5.8 mph - N/A   Clear
10:55 PM 45.5 °F 42.5 °F 24.4 °F 44% 30.20 in 10.0 mi NNW 5.8 mph - N/A   Clear
11:15 PM 45.5 °F 43.2 °F 25.2 °F 45% 30.20 in 10.0 mi NNW 4.6 mph - N/A   Clear
11:35 PM 42.1 °F - 26.2 °F 53% 30.20 in 10.0 mi Calm Calm - N/A   Clear
11:55 PM 43.2 °F 41.5 °F 26.6 °F 52% 30.20 in 10.0 mi NNW 3.5 mph - N/A   Clear